User: anonymous   Login
Location: Unspecified
(0.0000°N, 0.0000°E)
Time: 16:09:02
(UTC+00:00)
Language:

N. Korean satellite - Orbit

View from above orbital plane
View from above orbital plane
View from above satellite
View from above satellite

Ground track
Ground track

The orbit data is extracted from the following two-line orbital elements,

1 39026U 12072A   15243.36879667  .00002983  00000-0  13470-3 0  9999
2 39026 097.2782 272.3809 0044456 333.6176 026.2796 15.20862697150138
Epoch (UTC): 31 August 2015 08:51:04
Eccentricity: 0.0044456
inclination: 97.2782°
perigee height: 472 km
apogee height: 534 km
right ascension of ascending node: 272.3809°
argument of perigee: 333.6176°
revolutions per day: 15.20862697
mean anomaly at epoch: 26.2796°
orbit number at epoch: 15013

The dashed part of the orbit path shows where the satellite is in the earth's shadow,  

DLR